Location: El Águila
(10.4167°N, 66.7167°W)
Time: 05:05:31
(UTC+00:00)

Okean O Rocket - Pass Details

Date: 02 October 2022
Orbit: 621 x 644 km, 98.2° (Epoch: 04 December)

Event Time Altitude Azimuth Distance (km) Brightness Sun altitude
Exits shadow 23:47:22 70° 44° (NE) 659 1.4 -23.1°
Drops below altitude 10° 23:51:24 10° 353° (N) 1,988 4.2 -24.1°
Sets 23:53:36 0° 352° (N) 2,897 5.1 -24.7°
